Home > Weather > Sheboygan > Past weeks

Flag for USA Past Weather in Sheboygan, Wisconsin, USA — Yesterday and Last 2 Weeks

Now
64 °F

Clear.


Feels Like: 64 °F
Forecast: 67 / 83 °F
Wind: 3 mph from Northwest

Location: Sheboygan County Memorial Airport

Current Time: Jul 26, 2016 at 1:45:49 AM

Latest Report: Jul 26, 2016 at 12:53 AM


Visibility: 10 mi

Pressure: 30.02 "Hg

Humidity: 90%

Dew Point: 61 °F

Location of SheboyganLocation

Past Weather in Sheboygan — Graph

°F

Sheboygan Temperature Yesterday

Maximum temperature yesterday: 83 °F (at 2:53 PM)
Minimum temperature yesterday: 64 °F (at 11:53 PM)
Average temperature yesterday: 75 °F

High & Low Weather Summary for the Past Weeks

 TemperatureHumidityPressure
High91 °F (Jul 22, 3:53 PM)100% (Jul 16, 5:04 AM)30.27 "Hg (Jul 16, 5:04 AM)
Low49 °F (Jul 16, 5:04 AM)41% (Jul 22, 3:53 PM)29.68 "Hg (Jul 13, 5:53 PM)
Average73 °F75%29.96 "Hg
* Reported Jul 10 11:53 PM — Jul 25 11:53 PM, Sheboygan, Weather by CustomWeather, © 2016

Note: Actual official high and low records may vary slightly from our data, if they occured in-between our weather recording intervals... More about our weather records

Advertising

Sheboygan Weather History for the Previous 24 Hours

Scroll right to see more
 ConditionsComfort  
Time TempWeatherWind HumidityBarometerVisibility
11:53 PM
Mon, Jul 25
64 °FClear.No wind94%30.01 "Hg10 mi
10:53 PM67 °FClear.3 mph87%30.00 "Hg10 mi
9:53 PM68 °FClear.No wind87%30.00 "Hg10 mi
8:53 PM70 °FSunny.No wind84%29.98 "Hg10 mi
7:53 PM77 °FSunny.3 mph64%29.97 "Hg10 mi
6:53 PM81 °FSunny.7 mph53%29.96 "Hg10 mi
5:53 PM83 °FSunny.9 mph48%29.96 "Hg10 mi
4:53 PM83 °FSunny.6 mph51%29.96 "Hg10 mi
3:53 PM82 °FSunny.12 mph51%29.97 "Hg10 mi
2:53 PM83 °FSunny.9 mph51%29.96 "Hg10 mi
1:53 PM82 °FSunny.14 mph51%29.97 "Hg10 mi
12:53 PM81 °FSunny.15 mph51%29.98 "Hg10 mi
11:53 AM81 °FSunny.12 mph53%29.97 "Hg10 mi
10:53 AM80 °FSunny.8 mph60%29.97 "Hg10 mi
9:53 AM78 °FSunny.8 mph66%29.97 "Hg10 mi
8:53 AM76 °FSunny.7 mph69%29.96 "Hg10 mi
7:53 AM73 °FSunny.7 mph76%29.96 "Hg10 mi
6:53 AM70 °FSunny.6 mph84%29.96 "Hg10 mi
5:53 AM67 °FClear.7 mph87%29.93 "Hg10 mi
4:53 AM69 °FClear.6 mph84%29.91 "Hg10 mi
3:53 AM70 °FClear.6 mph84%29.92 "Hg10 mi
2:53 AM72 °FClear.5 mph76%29.92 "Hg10 mi
1:53 AM74 °FClear.8 mph71%29.90 "Hg10 mi
Weather by CustomWeather, © 2016

See weather overviewHow to use our weather pages